TimeEDT,TemperatureF,Dew PointF,Humidity,Sea Level PressureIn,VisibilityMPH,Wind Direction,Wind SpeedMPH,Gust SpeedMPH,PrecipitationIn,Events,Conditions,WindDirDegrees,DateUTC
12:53 AM,51.1,41.0,68,30.12,10.0,Calm,Calm,-,N/A,,Mostly Cloudy,0,2013-05-14 04:53:00
1:53 AM,48.9,39.9,71,30.12,10.0,Calm,Calm,-,N/A,,Scattered Clouds,0,2013-05-14 05:53:00
2:53 AM,50.0,37.9,63,30.09,10.0,SSE,3.5,-,N/A,,Clear,150,2013-05-14 06:53:00
3:53 AM,48.0,37.0,66,30.08,10.0,SSE,4.6,-,N/A,,Clear,150,2013-05-14 07:53:00
4:53 AM,46.0,37.9,73,30.06,10.0,South,3.5,-,N/A,,Clear,170,2013-05-14 08:53:00
5:53 AM,51.1,34.0,52,30.04,10.0,South,9.2,-,N/A,,Clear,180,2013-05-14 09:53:00
6:53 AM,51.1,34.0,52,30.04,10.0,South,10.4,-,N/A,,Clear,180,2013-05-14 10:53:00
7:53 AM,50.0,36.0,59,30.04,10.0,SE,9.2,-,N/A,,Clear,140,2013-05-14 11:53:00
8:53 AM,57.0,37.9,49,30.01,10.0,SSE,10.4,-,N/A,,Clear,160,2013-05-14 12:53:00
9:53 AM,63.0,41.0,45,29.99,10.0,South,17.3,21.9,N/A,,Clear,190,2013-05-14 13:53:00
10:53 AM,66.9,45.0,45,29.97,10.0,SSW,15.0,-,N/A,,Clear,200,2013-05-14 14:53:00
11:53 AM,72.0,48.9,44,29.94,10.0,SW,13.8,19.6,N/A,,Clear,220,2013-05-14 15:53:00
12:53 PM,75.9,52.0,43,29.92,10.0,SW,10.4,-,N/A,,Clear,230,2013-05-14 16:53:00
1:53 PM,79.0,53.1,40,29.88,10.0,SSW,12.7,23.0,N/A,,Clear,210,2013-05-14 17:53:00
2:53 PM,81.0,55.0,41,29.86,10.0,SSW,12.7,20.7,N/A,,Clear,210,2013-05-14 18:53:00
3:53 PM,82.0,55.0,39,29.84,10.0,SW,20.7,31.1,N/A,,Clear,230,2013-05-14 19:53:00
4:53 PM,84.0,57.0,40,29.84,10.0,SW,11.5,21.9,N/A,,Clear,230,2013-05-14 20:53:00
5:53 PM,82.0,57.0,42,29.84,10.0,SW,18.4,25.3,N/A,,Clear,230,2013-05-14 21:53:00
6:53 PM,81.0,57.0,44,29.84,10.0,WSW,16.1,26.5,N/A,,Clear,240,2013-05-14 22:53:00
7:53 PM,80.1,55.9,43,29.83,10.0,SW,10.4,-,N/A,,Clear,230,2013-05-14 23:53:00
8:53 PM,75.9,55.9,50,29.83,10.0,SW,8.1,-,N/A,,Clear,220,2013-05-15 00:53:00
9:53 PM,73.0,57.9,59,29.84,10.0,South,5.8,-,N/A,,Clear,190,2013-05-15 01:53:00
10:53 PM,70.0,57.9,65,29.85,10.0,South,6.9,-,N/A,,Clear,190,2013-05-15 02:53:00
11:53 PM,70.0,57.0,63,29.85,10.0,South,5.8,-,N/A,,Clear,190,2013-05-15 03:53:00